Voltar ao catálogo

COSMOS 1704

AtivoNavegaçãoPO
NORAD 16291·PAYLOAD·🇷🇺 Russia

Lançado Nov 28, 1985 de Plesetsk Cosmodrome

Loading…

Próximas Passagens (próximas 24 horas)

TLE

AtualizadoSource: Space-Track

Época: Sep 14, 2026, 10:24 UTC

1 16291U 85110A   26257.43335734  .00000032  00000-0  17219-4 0  9997
2 16291  82.9327  58.5642 0031142 166.4915 222.1313 13.74895164 46197

Acompanhe COSMOS 1704 em tempo real com AllMySat

Download on the App Store